Wetbulb
59.88 60.06 59.59 59.62 59.94 59.93 59.95 59.86 59.44 58.98 58.76 58.57 58.11 58.48 59.16 59.65 59.17 54.52 47.94 52.66 55.69 61.71 57.65 48.44 47.64 46.85 46.95 46.18 44.96 42.01 37.12 34.16 35.43 37.08 38.38 39.39 40.35 40.09 42.13 42.00 42.02 45.17 46.42 49.50 59.19
60.06 59.83 59.49 58.89 59.50 59.55 59.55 59.39 58.91 58.31 58.19 58.09 57.77 58.21 58.84 59.09 51.26 48.38 57.32 62.71 63.29 61.28 48.66 46.87 45.06 45.42 43.20 43.52 42.71 40.66 36.36 37.48 39.19 38.25 38.03 40.77 40.11 42.27 41.79 41.86 42.52 45.61 48.45 53.48 60.14
59.63 59.06 59.06 58.48 58.51 59.41 59.36 59.08 58.49 57.99 57.68 57.69 57.65 58.31 58.73 56.12 46.53 45.71 61.27 61.97 61.34 57.55 48.95 47.62 46.90 45.23 40.99 40.76 39.62 38.72 37.89 38.82 39.24 39.60 41.29 41.92 39.56 41.22 41.12 40.07 42.65 44.58 47.10 53.86 57.21
59.23 59.07 59.17 58.85 58.57 59.23 59.01 58.60 57.93 57.48 57.18 57.36 57.92 58.63 58.49 51.59 35.36 49.30 60.65 60.61 60.50 51.20 49.14 46.84 45.45 42.45 39.30 39.65 40.38 37.40 38.49 40.01 41.81 41.46 40.52 41.29 41.43 38.47 40.50 42.44 42.54 44.23 48.69 54.14 57.67
58.53 58.18 58.46 59.00 59.19 58.93 58.51 58.18 57.84 57.73 57.20 57.36 58.26 58.75 52.30 41.80 43.55 51.41 58.77 57.80 50.64 49.21 46.51 45.30 42.41 41.24 39.32 40.39 39.82 37.18 37.74 39.39 40.23 39.81 38.35 40.63 39.21 39.06 39.53 42.13 41.87 42.52 50.47 54.15 57.40
57.84 57.62 57.85 58.40 58.68 58.53 58.19 58.02 57.87 57.62 57.35 57.45 58.57 58.68 45.77 36.20 48.64 52.26 51.85 50.69 49.58 47.24 45.48 44.90 44.03 43.60 40.31 39.87 38.78 39.86 38.87 37.79 39.14 38.84 39.82 37.77 36.08 37.76 38.46 38.30 39.74 43.87 47.86 51.91 55.31
57.83 57.31 57.36 57.94 58.38 58.40 58.36 57.92 57.66 57.54 57.41 57.70 58.44 54.01 44.42 41.16 49.45 50.78 50.53 48.39 49.05 48.66 45.41 46.25 45.14 42.60 42.34 39.59 41.68 39.37 37.05 36.17 37.78 38.51 38.46 38.97 37.00 38.13 38.46 38.29 38.62 40.43 42.88 48.71 51.47
57.93 57.43 57.31 57.68 58.08 58.06 57.79 57.58 57.80 57.58 57.56 58.03 58.63 48.36 39.43 48.38 48.48 48.95 48.29 47.27 48.49 48.86 48.77 47.16 46.85 45.46 41.98 41.41 39.47 36.10 35.15 31.80 35.52 38.29 37.47 36.37 32.98 36.92 38.38 36.76 39.71 38.23 37.66 41.14 46.47
57.56 57.27 57.62 57.78 57.65 57.70 57.84 57.80 57.50 57.37 57.54 58.49 47.88 42.67 38.10 52.49 46.73 48.60 46.99 46.49 47.02 47.06 47.61 49.22 45.43 41.19 40.32 36.98 33.63 33.71 28.63 29.55 34.58 37.80 36.39 35.08 34.02 36.83 38.10 37.92 37.30 37.14 37.65 38.37 39.15
57.41 57.25 57.51 57.63 57.53 57.49 57.53 57.45 57.02 55.84 55.99 55.38 51.24 40.19 41.53 42.01 46.21 47.59 45.78 47.24 44.81 44.66 44.53 43.54 39.97 36.49 34.16 33.88 28.42 30.61 29.19 29.02 30.40 34.27 35.38 33.42 35.55 38.11 39.21 37.20 38.26 37.78 38.44 39.02 39.58
57.37 57.26 57.48 57.44 57.52 57.81 56.81 52.52 45.38 42.41 45.49 39.99 41.10 38.91 41.46 46.61 47.59 44.88 46.28 45.07 42.69 41.07 36.63 37.89 35.41 32.23 34.53 36.03 33.62 33.65 30.75 29.93 30.70 35.12 33.62 33.54 34.70 38.06 38.13 37.37 38.02 38.90 39.23 39.70 39.70
57.17 57.21 57.33 57.45 57.71 57.82 52.66 45.71 43.06 44.21 39.91 47.06 45.56 44.55 46.13 46.48 42.12 43.30 46.05 40.96 38.59 34.54 36.45 34.77 31.32 36.77 37.51 35.93 34.27 32.29 30.40 28.96 32.84 35.16 35.16 33.40 34.43 37.11 37.43 38.00 39.52 39.91 39.77 39.49 39.48
57.10 56.85 56.98 57.25 57.42 55.11 49.17 49.59 53.89 51.33 38.93 41.49 45.80 44.34 44.54 46.03 41.09 42.38 44.27 40.43 35.73 33.47 33.22 32.03 34.34 37.60 36.91 33.52 33.01 29.91 29.64 29.05 31.40 31.95 32.49 30.19 30.28 33.15 34.92 35.47 37.81 38.97 39.47 39.64 39.87
57.16 56.65 56.89 57.12 53.07 51.65 48.52 52.44 54.29 52.35 33.32 36.25 40.74 42.68 45.20 45.12 39.68 45.15 44.37 41.51 35.65 33.53 33.21 32.52 35.42 34.94 33.33 32.24 33.60 29.09 34.08 33.55 31.97 30.05 26.05 29.30 23.68 28.93 32.76 34.51 35.71 37.94 38.06 37.60 36.69
56.93 56.64 56.96 56.16 50.14 48.97 49.69 53.30 54.35 45.83 20.41 37.69 40.73 46.80 44.85 40.93 40.56 41.35 43.88 41.06 35.36 34.25 34.75 31.44 33.58 33.33 32.13 33.91 35.18 32.39 34.62 33.62 31.25 28.09 26.10 25.16 25.12 28.32 29.97 32.38 36.35 38.05 36.70 37.22 37.93
56.89 56.58 56.55 53.65 50.71 51.34 53.83 53.78 48.26 32.68 19.46 32.93 40.41 38.40 38.40 38.90 38.83 40.89 41.37 42.18 40.07 35.59 33.91 32.70 34.92 34.76 34.91 34.34 35.84 35.89 33.30 31.49 28.87 27.23 23.04 26.45 27.42 25.13 29.54 33.18 33.23 34.94 35.90 37.84 39.00
56.67 56.30 55.24 54.34 48.79 53.70 52.97 47.19 32.64 26.34 35.17 34.21 36.05 37.35 36.86 35.40 37.44 37.80 37.18 36.01 33.14 29.19 28.36 31.94 32.85 35.44 36.06 33.42 34.69 32.07 30.62 23.29 22.08 21.32 22.21 25.20 25.03 28.15 32.92 35.00 33.92 36.05 35.86 37.01 38.52
53.88 55.69 54.13 54.48 54.05 52.64 49.30 38.89 26.49 26.76 30.70 38.21 37.44 36.51 32.99 36.24 36.24 36.59 35.07 33.51 35.02 31.68 29.34 27.57 26.55 34.38 36.36 34.39 31.99 30.84 30.96 24.60 17.40 18.30 21.57 25.92 23.72 29.67 34.37 35.38 36.83 37.79 38.25 38.39 38.27
50.60 50.00 50.88 51.67 53.79 52.00 43.34 30.77 29.84 29.00 36.82 36.92 36.26 31.78 31.91 35.15 35.20 34.54 33.05 33.77 36.42 34.50 31.10 28.40 28.15 34.33 35.54 36.53 37.44 31.67 28.58 32.27 24.70 14.61 19.53 24.00 27.66 33.35 35.86 35.66 36.29 36.88 37.13 36.10 36.71
46.63 46.76 47.85 52.33 53.73 48.22 38.79 33.42 34.17 38.51 40.44 38.64 32.64 34.22 30.29 32.62 32.94 33.16 32.49 34.90 34.65 36.14 35.30 33.31 27.94 32.81 34.56 36.85 35.80 33.93 35.70 27.39 25.59 15.42 15.11 22.38 24.17 28.45 31.87 34.59 35.53 35.73 36.51 36.76 37.60
44.27 42.21 47.90 51.79 50.93 43.44 32.42 34.95 36.63 41.53 42.98 39.42 36.95 34.87 34.28 33.51 34.04 32.94 33.44 34.64 37.10 36.03 38.25 34.73 32.10 29.65 33.20 31.56 30.97 31.24 29.89 30.36 30.71 27.38 22.01 17.79 24.70 30.76 32.97 35.63 35.74 35.75 36.65 37.22 37.41
41.41 36.28 46.80 50.83 35.64 33.17 32.34 37.31 41.82 40.92 44.07 41.77 40.87 39.57 35.99 36.09 33.81 33.28 32.74 34.44 38.52 38.58 35.58 36.63 33.04 27.69 29.63 32.90 34.70 33.87 32.46 31.71 26.06 22.67 23.85 23.31 28.55 34.78 33.94 35.82 36.79 36.85 37.65 37.18 36.96
37.13 38.44 46.98 46.58 31.03 32.39 36.49 38.43 41.17 40.59 41.60 41.04 38.78 40.10 40.74 37.25 33.89 35.68 35.21 39.59 39.63 37.96 36.74 37.67 31.49 24.54 27.97 28.54 31.91 31.06 31.58 32.63 31.52 28.74 23.09 20.77 28.42 34.27 34.26 34.26 35.10 35.64 36.32 37.82 35.41
34.12 32.98 38.64 42.55 39.59 35.82 35.53 36.71 37.50 42.41 41.55 42.73 40.38 41.36 39.22 37.76 39.63 36.50 37.02 39.35 40.45 40.32 42.73 40.34 31.41 29.93 27.18 27.10 32.25 30.74 31.48 33.69 33.58 27.18 27.86 27.95 27.81 31.25 33.56 35.31 36.32 36.96 36.44 35.79 35.51
32.67 30.43 33.05 32.17 34.68 36.77 37.45 37.69 35.85 36.27 40.48 42.36 38.67 39.75 37.89 35.30 36.42 36.05 39.09 39.57 41.10 42.48 41.49 38.86 28.92 31.17 31.83 32.21 32.13 29.38 28.94 32.46 32.50 33.23 28.40 32.61 30.32 32.29 35.26 36.97 36.77 37.63 36.92 36.27 36.83
30.36 29.01 31.38 31.71 36.24 35.27 37.08 34.52 36.14 37.31 38.48 37.54 36.80 38.18 39.53 36.07 36.72 35.06 38.17 38.36 37.78 40.00 39.68 39.79 32.21 33.82 32.49 34.72 34.13 32.31 34.11 32.23 32.07 33.06 33.62 33.18 31.74 34.68 38.97 36.90 36.43 38.18 37.80 37.30 37.12
36.96 36.21 30.41 29.00 31.75 33.59 32.46 33.42 35.71 38.68 38.72 38.75 39.01 38.09 37.90 39.03 39.98 39.81 40.22 40.31 39.63 37.76 36.33 35.20 32.15 31.28 29.67 33.05 32.13 28.31 33.42 34.11 32.92 34.51 34.01 30.51 35.54 37.55 36.43 37.13 36.78 36.38 36.74 35.95 35.57
MSLP
1011.77 1012.47 1012.71 1013.07 1013.23 1013.85 1014.14 1014.30 1014.28 1014.57 1014.54 1014.12 1013.82 1013.74 1013.95 1014.04 1013.89 1013.83 1013.81 1012.79 1012.64 1012.21 1012.32 1012.65 1012.57 1012.96 1013.17 1014.06 1014.49 1015.13 1016.12 1016.69 1016.23 1016.02 1015.45 1015.62 1015.69 1015.85 1016.04 1016.24 1016.36 1016.40 1016.74 1016.86 1017.01
1011.40 1012.12 1012.52 1013.07 1013.04 1013.61 1013.74 1014.06 1014.18 1014.18 1014.53 1014.46 1014.21 1014.08 1013.92 1013.78 1014.05 1013.98 1012.53 1012.22 1012.34 1012.43 1012.52 1012.72 1012.95 1013.10 1013.72 1014.33 1014.85 1015.31 1016.30 1015.96 1015.31 1015.17 1015.02 1015.21 1015.43 1015.71 1016.17 1016.41 1016.53 1016.56 1016.90 1017.17 1017.44
1011.41 1012.22 1012.37 1012.92 1013.00 1013.39 1013.96 1014.16 1014.12 1014.27 1014.58 1014.65 1014.43 1014.10 1013.96 1013.76 1013.60 1012.54 1011.94 1012.19 1012.46 1012.53 1012.75 1012.27 1012.89 1013.23 1013.87 1014.33 1014.88 1015.22 1015.69 1015.33 1014.99 1014.74 1014.77 1015.05 1015.52 1015.54 1016.00 1016.74 1016.26 1016.35 1016.74 1017.51 1017.71
1011.17 1011.85 1012.17 1012.55 1012.90 1013.33 1013.69 1013.87 1013.92 1014.00 1014.27 1014.52 1014.41 1014.25 1014.02 1013.76 1013.41 1012.16 1012.06 1012.23 1012.54 1012.59 1012.83 1012.79 1012.98 1013.73 1014.07 1014.53 1014.81 1015.21 1015.07 1014.89 1014.93 1014.76 1014.76 1015.14 1015.45 1015.92 1015.98 1015.66 1015.88 1016.02 1016.54 1017.29 1017.64
1011.00 1011.47 1011.91 1012.35 1012.64 1013.18 1013.40 1013.75 1013.89 1014.06 1014.03 1014.32 1014.23 1014.24 1014.17 1013.89 1012.70 1012.02 1011.91 1012.22 1012.60 1012.73 1012.93 1013.15 1013.54 1013.68 1014.29 1014.39 1015.01 1015.13 1015.06 1014.89 1015.01 1015.03 1014.97 1015.09 1015.44 1015.80 1015.78 1015.62 1015.89 1016.11 1016.69 1017.16 1017.35
1010.71 1011.36 1011.72 1012.22 1012.38 1013.06 1013.51 1013.78 1014.01 1014.11 1014.00 1014.14 1014.35 1014.21 1014.20 1013.65 1012.14 1012.08 1012.24 1012.65 1012.86 1012.96 1013.11 1013.20 1013.11 1013.35 1014.36 1014.71 1015.07 1014.95 1015.28 1015.21 1015.32 1015.44 1015.44 1015.50 1015.77 1015.80 1015.49 1015.60 1015.83 1016.55 1016.90 1017.18 1017.40
1010.43 1010.96 1011.61 1011.87 1012.04 1012.87 1013.35 1013.80 1013.84 1013.93 1013.91 1013.82 1013.70 1014.18 1014.04 1012.60 1012.32 1012.35 1012.46 1012.71 1012.92 1012.82 1013.25 1013.23 1013.25 1013.52 1014.14 1015.06 1015.20 1015.58 1015.51 1015.67 1015.79 1015.76 1016.04 1015.99 1016.21 1015.67 1015.48 1015.77 1016.15 1016.73 1017.03 1017.36 1017.52
1010.03 1010.42 1011.15 1011.65 1012.00 1012.64 1013.42 1013.56 1013.62 1013.93 1013.96 1014.12 1013.74 1014.44 1013.78 1012.66 1012.65 1012.44 1012.51 1012.59 1012.78 1012.87 1012.90 1013.28 1013.17 1013.83 1014.53 1015.26 1015.52 1016.18 1016.32 1016.61 1016.41 1016.36 1016.40 1016.39 1016.32 1015.57 1015.67 1015.89 1016.35 1016.77 1017.13 1017.19 1017.20
1009.32 1010.11 1010.82 1011.56 1011.77 1012.45 1013.38 1013.73 1014.04 1014.01 1014.18 1014.12 1014.13 1014.19 1013.57 1012.80 1012.69 1012.37 1012.48 1012.68 1012.94 1013.26 1013.26 1013.57 1013.79 1015.01 1015.13 1015.77 1016.81 1017.27 1017.19 1017.21 1016.97 1016.89 1016.79 1016.79 1016.71 1015.85 1015.99 1016.05 1016.51 1016.77 1017.18 1017.15 1016.95
1009.13 1010.08 1010.55 1011.31 1011.77 1012.34 1013.12 1013.68 1013.93 1014.17 1014.45 1014.40 1014.14 1014.60 1013.51 1012.66 1012.49 1012.60 1012.44 1012.64 1013.29 1013.60 1013.92 1014.40 1015.25 1015.81 1016.43 1016.44 1017.19 1017.28 1017.44 1017.43 1017.33 1017.28 1017.24 1017.27 1016.88 1016.34 1016.34 1016.24 1016.47 1016.69 1016.79 1016.90 1016.63
1008.87 1009.77 1010.40 1011.23 1011.94 1012.07 1012.96 1013.75 1014.45 1014.55 1014.26 1013.33 1013.47 1013.05 1012.74 1012.65 1012.40 1012.83 1012.71 1012.95 1013.68 1014.13 1014.91 1015.47 1016.10 1016.19 1016.65 1016.51 1016.96 1016.92 1017.41 1017.39 1017.29 1017.51 1017.58 1017.43 1017.48 1016.29 1016.20 1016.41 1016.17 1016.30 1016.26 1016.04 1015.88
1008.55 1009.43 1010.32 1011.07 1011.54 1011.86 1012.50 1012.82 1012.52 1012.31 1013.22 1013.05 1013.18 1013.05 1012.50 1012.42 1012.72 1013.14 1012.88 1013.36 1014.05 1014.88 1015.53 1016.37 1016.27 1016.49 1016.67 1016.97 1017.08 1017.32 1017.76 1017.73 1017.65 1017.73 1017.75 1017.94 1017.67 1016.68 1016.28 1015.83 1015.37 1015.23 1015.37 1015.23 1015.01
1008.08 1009.03 1009.98 1010.97 1011.39 1011.99 1012.22 1012.02 1011.80 1011.93 1012.55 1012.68 1012.81 1012.50 1012.28 1012.68 1012.72 1012.72 1013.19 1013.44 1014.27 1015.33 1015.63 1015.84 1015.98 1016.13 1016.46 1017.09 1017.44 1017.71 1018.06 1018.10 1018.33 1018.25 1018.37 1018.69 1017.99 1016.88 1015.66 1015.20 1014.71 1014.48 1014.43 1014.59 1014.56
1007.30 1008.44 1009.63 1010.44 1011.93 1011.67 1012.21 1011.44 1011.77 1012.05 1012.71 1012.61 1012.42 1011.49 1012.00 1012.53 1012.87 1012.41 1012.81 1013.28 1014.48 1015.17 1016.02 1016.12 1015.96 1016.38 1016.70 1017.06 1017.37 1018.08 1017.86 1018.16 1018.62 1019.14 1019.61 1019.62 1018.70 1017.18 1015.85 1015.35 1014.81 1014.10 1013.91 1013.97 1014.51
1006.83 1007.53 1009.11 1009.85 1010.14 1011.27 1011.21 1011.38 1011.77 1012.22 1012.92 1011.18 1011.36 1010.76 1011.05 1012.17 1012.22 1012.81 1012.68 1013.14 1014.15 1014.91 1015.61 1015.67 1015.96 1016.35 1016.62 1016.57 1017.12 1017.66 1017.85 1018.58 1019.20 1020.07 1020.39 1020.32 1020.25 1016.76 1016.32 1015.65 1014.56 1013.47 1013.88 1013.99 1014.40
1006.18 1006.81 1008.53 1009.49 1009.87 1010.74 1010.62 1011.51 1012.08 1014.03 1012.61 1011.22 1010.98 1011.06 1011.73 1012.13 1012.60 1012.99 1013.10 1013.15 1013.89 1014.92 1015.31 1015.50 1015.64 1015.71 1015.81 1016.56 1016.92 1017.75 1018.59 1019.67 1020.58 1021.02 1021.11 1020.12 1019.75 1017.05 1016.17 1014.81 1014.28 1013.82 1013.91 1014.19 1014.64
1005.85 1006.36 1007.23 1008.40 1009.36 1009.86 1010.75 1013.33 1014.19 1013.33 1011.49 1011.38 1011.14 1011.46 1011.46 1011.95 1012.84 1012.96 1013.22 1013.58 1013.73 1015.00 1015.54 1015.72 1015.69 1015.58 1015.64 1016.65 1017.53 1017.75 1019.02 1020.82 1021.61 1021.93 1021.15 1020.37 1019.89 1015.83 1014.92 1013.99 1014.24 1014.08 1014.07 1014.33 1014.59
1005.90 1005.85 1006.44 1007.59 1008.43 1009.13 1010.85 1012.83 1012.87 1011.01 1010.81 1010.69 1010.87 1011.47 1011.91 1011.85 1012.68 1012.96 1013.12 1013.75 1013.72 1013.70 1014.87 1015.30 1015.79 1015.26 1015.29 1015.52 1016.52 1017.82 1018.17 1019.50 1020.89 1022.14 1021.37 1020.81 1018.79 1015.14 1013.96 1013.92 1014.05 1014.18 1014.53 1014.50 1014.74
1006.46 1006.20 1006.27 1007.30 1007.47 1008.44 1010.61 1011.51 1010.11 1010.00 1009.59 1010.13 1010.88 1011.58 1012.02 1011.83 1012.00 1012.63 1012.87 1012.75 1012.65 1012.77 1013.43 1014.52 1014.66 1014.65 1014.83 1014.90 1015.43 1017.53 1017.75 1017.65 1020.03 1022.13 1021.65 1019.65 1017.27 1014.98 1013.41 1013.69 1013.98 1014.32 1014.78 1015.10 1015.20
1007.02 1006.84 1007.00 1007.24 1007.39 1008.44 1009.97 1009.78 1009.62 1009.17 1009.09 1009.32 1009.86 1010.63 1011.29 1011.69 1012.19 1012.52 1012.78 1011.81 1012.12 1012.08 1012.29 1013.03 1014.27 1014.92 1014.99 1014.99 1015.43 1015.45 1016.10 1017.87 1019.19 1020.69 1020.88 1018.93 1017.49 1014.90 1013.79 1013.96 1014.09 1014.58 1014.70 1014.84 1014.93
1007.37 1007.10 1007.41 1007.41 1007.50 1008.55 1008.91 1009.03 1009.19 1008.87 1008.80 1009.10 1009.49 1010.17 1010.32 1010.87 1011.25 1011.77 1011.70 1011.63 1011.30 1011.85 1012.14 1012.69 1013.42 1015.58 1015.27 1014.97 1015.02 1015.95 1016.04 1016.97 1017.85 1018.68 1018.83 1018.64 1015.99 1013.91 1013.51 1013.90 1014.30 1014.45 1014.53 1014.71 1015.05
1007.95 1007.80 1007.66 1007.49 1008.51 1009.28 1009.25 1008.84 1008.72 1008.74 1009.03 1009.06 1009.15 1009.31 1009.69 1010.21 1010.78 1011.43 1011.25 1011.06 1010.73 1010.90 1011.91 1012.21 1013.32 1015.16 1015.25 1015.08 1015.12 1015.00 1014.84 1015.45 1016.91 1017.93 1018.22 1017.65 1014.26 1013.67 1013.73 1014.10 1014.14 1014.39 1014.65 1014.83 1015.21
1008.39 1008.29 1007.82 1007.90 1008.72 1009.21 1008.85 1008.81 1008.69 1008.87 1008.68 1009.14 1009.09 1009.41 1009.74 1010.00 1010.62 1010.62 1010.86 1011.19 1011.07 1011.01 1011.24 1011.82 1013.52 1014.93 1015.53 1015.89 1015.80 1015.48 1015.31 1015.24 1015.87 1016.53 1016.67 1017.36 1013.56 1014.55 1014.56 1014.72 1014.62 1014.61 1014.89 1015.19 1015.49
1009.15 1009.09 1008.61 1008.47 1008.95 1008.84 1008.89 1008.63 1008.75 1008.66 1008.76 1009.05 1009.11 1009.42 1009.85 1010.09 1010.17 1010.42 1011.05 1011.31 1011.50 1011.44 1011.49 1011.65 1012.99 1013.84 1013.71 1014.17 1014.68 1015.58 1015.00 1014.72 1015.09 1016.03 1014.86 1014.53 1014.18 1014.85 1015.01 1014.95 1014.95 1015.01 1015.14 1015.35 1015.76
1009.68 1009.66 1009.49 1009.25 1009.10 1008.84 1008.85 1008.58 1008.61 1008.79 1008.90 1008.92 1008.99 1009.13 1009.65 1010.05 1010.18 1010.65 1011.13 1011.80 1012.16 1012.08 1012.25 1012.43 1013.35 1014.03 1014.20 1014.38 1014.67 1014.53 1014.48 1014.47 1014.66 1013.62 1014.74 1011.58 1013.61 1014.08 1014.30 1014.56 1014.78 1014.93 1015.29 1015.74 1016.19
1010.06 1010.11 1009.99 1009.82 1009.15 1008.81 1008.88 1008.68 1008.55 1008.66 1008.77 1008.77 1009.25 1009.47 1009.51 1009.64 1009.77 1010.31 1010.98 1011.41 1011.66 1012.35 1012.63 1013.17 1013.63 1013.98 1014.16 1014.43 1014.84 1014.79 1014.37 1014.49 1014.07 1013.74 1013.41 1013.24 1012.55 1013.01 1013.55 1014.29 1014.93 1015.14 1015.61 1016.27 1016.68
1010.28 1010.31 1010.49 1010.43 1009.77 1009.55 1008.82 1008.89 1008.69 1008.85 1009.22 1009.15 1009.37 1009.77 1009.94 1010.03 1010.09 1010.18 1010.63 1010.94 1011.43 1012.18 1012.79 1013.42 1013.88 1014.18 1014.28 1014.16 1014.92 1014.91 1012.69 1013.63 1013.56 1013.24 1013.13 1013.04 1011.02 1013.04 1014.09 1014.75 1015.07 1015.70 1016.11 1016.56 1016.92
Wind_Speed
12 12 11 10 8 10 10 9 9 8 6 5 3 1 2 3 4 3 4 7 3 6 4 3 3 3 4 3 3 3 6 2 4 6 3 4 4 2 1 4 2 4 5 3 9
12 12 12 13 10 9 8 8 7 5 4 4 2 1 2 3 3 6 9 2 2 5 3 5 3 3 4 2 3 6 4 8 4 4 4 6 3 7 2 1 3 3 2 4 10
14 15 13 14 12 10 10 9 5 4 3 3 3 2 3 1 2 6 2 4 4 3 0 4 4 3 3 2 1 3 5 5 3 2 3 6 2 5 7 4 8 10 7 8 7
14 14 11 12 12 12 11 9 7 4 2 3 3 3 4 1 5 1 2 4 3 2 3 5 4 4 3 5 2 2 2 4 2 2 3 6 6 3 7 7 4 8 5 8 12
14 11 12 12 11 11 10 9 8 7 4 3 3 4 2 2 7 1 5 4 4 3 4 4 4 5 4 4 3 2 3 3 1 1 2 2 2 3 7 8 5 3 7 12 14
15 13 13 12 11 11 10 9 8 6 5 1 3 2 1 3 1 5 7 5 2 3 3 3 6 5 4 3 4 2 2 1 1 1 2 0 0 1 4 2 3 3 8 9 11
17 17 14 13 12 9 8 8 6 4 3 2 2 2 1 10 2 4 6 3 3 4 4 2 4 3 5 4 1 2 4 3 2 1 1 2 7 8 5 3 3 7 7 7 9
15 16 17 14 13 11 8 6 4 3 2 2 3 2 6 1 2 3 2 3 3 2 2 0 3 6 3 4 7 4 5 3 4 2 1 4 9 4 3 4 9 7 8 7 9
14 14 15 15 14 12 10 7 4 4 3 2 2 4 7 1 3 3 3 6 5 2 4 3 5 3 4 6 4 6 3 3 7 4 1 3 7 4 2 4 4 5 7 8 9
16 16 16 14 15 13 11 9 5 2 1 1 1 3 2 5 3 4 1 5 4 5 4 6 6 4 4 4 7 6 4 2 4 1 0 1 12 8 7 4 7 7 8 9 9
17 17 17 17 15 17 13 6 5 2 2 7 6 4 1 0 2 0 3 5 3 7 5 2 4 7 6 5 2 5 4 4 3 1 2 6 8 14 7 6 9 10 10 10 11
18 19 18 17 17 16 6 5 7 5 4 9 2 3 2 2 4 1 5 6 4 6 6 4 5 8 6 6 4 4 3 2 3 1 3 5 10 12 9 9 9 9 10 11 8
22 21 21 19 18 10 4 5 2 0 2 4 6 4 4 5 5 10 8 5 5 6 6 8 3 7 8 5 6 3 5 4 6 3 2 6 9 7 6 5 6 9 11 9 12
26 24 22 21 11 7 5 5 0 1 4 5 6 9 5 6 4 4 6 6 2 9 8 4 3 7 4 5 7 6 8 5 3 3 4 2 9 6 5 8 7 11 10 10 8
23 24 26 22 13 11 6 6 2 4 2 6 6 1 7 9 7 3 3 4 9 8 8 7 9 6 5 8 8 7 6 6 3 3 2 3 2 8 3 5 11 10 7 7 6
22 31 31 7 4 7 11 10 5 6 11 6 6 9 8 4 3 4 4 4 5 5 1 5 1 4 7 3 5 10 7 7 5 3 3 8 8 6 5 8 4 2 4 7 8
21 26 26 11 8 16 18 6 5 8 4 8 6 6 10 8 5 5 8 7 8 6 4 2 3 2 4 8 5 3 7 2 3 2 8 3 3 5 6 10 6 8 9 8 6
5 22 10 7 14 20 14 5 5 7 9 3 5 10 7 8 4 5 11 11 8 4 5 8 4 9 5 8 11 7 9 8 9 6 3 2 10 9 9 4 5 3 5 6 6
9 2 4 2 19 16 15 9 12 8 9 9 6 7 5 5 6 5 9 14 14 11 9 7 6 1 2 5 12 6 8 5 8 3 4 6 8 9 7 4 2 4 3 4 3
2 1 3 4 16 14 13 13 7 4 5 6 7 7 9 10 7 9 10 7 6 10 1 8 4 1 3 4 2 8 8 4 3 4 4 6 6 9 2 6 3 4 5 5 5
2 3 2 2 3 12 11 8 3 4 2 5 6 7 7 9 8 8 9 3 8 9 6 6 4 1 4 7 10 4 4 2 5 6 7 3 9 8 9 6 7 3 2 4 5
1 2 2 2 4 2 4 7 3 4 2 1 2 4 6 9 7 9 12 5 6 12 15 7 5 5 8 1 1 3 10 8 6 6 3 3 14 3 4 7 7 5 3 4 3
2 0 3 3 4 3 2 4 3 5 6 2 2 1 2 6 5 6 6 0 5 8 13 11 2 2 7 3 3 4 4 4 5 4 8 7 14 3 3 3 1 1 3 3 3
1 2 2 2 3 4 4 7 6 1 5 5 5 4 3 3 1 7 4 2 1 2 4 6 5 11 15 4 8 7 6 9 7 3 8 17 3 4 7 7 5 4 3 2 2
2 1 2 4 4 5 6 7 7 6 3 3 1 6 9 5 5 4 5 4 2 3 4 4 6 7 3 6 3 2 4 10 17 21 12 23 17 10 14 14 10 5 2 4 4
3 1 2 1 3 5 10 10 5 4 6 4 5 9 6 5 6 6 6 4 4 4 5 2 3 4 7 6 4 4 8 7 11 13 21 15 20 5 12 4 6 7 7 6 6
1 1 2 2 0 7 5 4 8 7 3 4 7 3 10 5 4 4 4 5 8 7 5 8 5 4 4 9 8 6 28 19 7 10 12 19 18 7 5 8 7 6 6 7 6
Wind_Direction
190 202 201 208 199 214 215 215 197 214 231 201 207 128 78 24 327 36 252 222 216 162 126 108 78 75 62 72 65 118 64 168 203 155 216 140 157 148 267 122 249 197 148 302 129
195 202 201 216 200 212 215 227 213 201 243 241 226 280 38 15 118 219 243 259 230 165 121 137 131 101 65 57 33 87 118 211 201 200 185 174 159 162 142 131 251 279 119 95 137
191 207 202 211 211 202 208 206 205 198 242 271 290 329 351 245 52 252 53 145 159 190 342 108 107 81 94 79 131 144 184 202 227 175 155 156 161 153 126 252 222 205 172 161 154
197 198 199 201 210 204 204 193 184 182 221 272 302 329 314 320 197 347 114 119 127 132 120 102 83 100 106 150 161 148 207 172 166 147 122 153 130 197 179 213 296 235 167 165 171
191 191 193 205 192 207 203 197 188 180 169 278 314 326 177 93 247 161 106 103 113 120 162 143 140 128 163 140 123 175 198 167 21 65 86 113 174 217 251 249 284 81 161 181 189
186 190 195 197 176 190 204 205 193 181 163 179 319 337 125 216 104 133 121 116 133 126 151 153 171 167 116 136 162 191 105 92 89 11 346 247 241 127 249 312 182 183 211 201 198
185 183 190 188 170 182 194 199 189 183 182 144 36 343 28 234 19 134 136 145 171 139 149 221 145 113 131 126 106 88 116 2 238 172 272 158 305 235 236 358 212 234 238 227 235
189 180 180 176 167 173 185 186 169 202 209 212 105 94 240 321 167 136 139 87 107 76 104 76 117 96 92 132 36 67 53 83 315 142 287 127 267 270 346 192 240 233 247 240 240
175 173 169 173 168 163 163 162 183 191 234 226 101 127 258 130 169 194 154 142 108 57 59 77 64 93 49 97 40 16 175 177 312 223 127 149 265 270 103 85 294 257 250 247 259
173 173 168 172 165 154 147 147 168 117 237 212 77 107 238 220 181 140 64 113 122 111 61 52 53 85 46 104 201 173 182 203 234 250 177 201 266 272 275 295 272 277 271 259 248
176 173 169 168 169 153 138 110 68 355 279 185 201 193 174 269 75 103 138 92 85 69 139 1 127 195 187 176 141 124 134 177 224 287 202 232 266 277 283 286 271 264 260 257 245
181 174 172 170 164 159 118 166 194 172 186 235 278 281 188 192 103 252 135 126 128 154 125 65 222 199 130 133 115 117 130 227 289 39 154 330 274 271 266 254 236 241 252 246 265
181 174 170 169 156 144 178 197 59 142 151 210 189 187 189 141 199 194 147 133 127 137 177 158 210 149 139 140 141 157 163 188 221 355 65 335 284 266 293 264 276 262 249 265 245
183 172 165 152 151 149 216 219 281 332 50 233 203 241 148 148 246 163 180 132 118 168 139 206 143 130 124 172 134 190 199 164 171 92 237 21 284 293 273 299 300 280 265 267 291
169 166 164 162 135 172 202 130 48 60 209 211 173 32 149 164 139 239 190 57 156 165 130 231 160 143 173 188 167 216 133 148 104 116 52 321 337 270 348 292 268 266 309 315 320
181 170 165 157 90 140 99 48 49 74 236 206 148 168 134 158 99 110 140 62 137 112 64 158 189 160 188 98 145 147 78 52 60 92 288 199 173 260 210 217 275 267 349 336 329
186 176 164 156 157 133 117 105 133 198 179 192 180 166 167 158 122 151 162 165 155 124 176 104 199 185 138 88 39 90 94 16 349 4 231 338 165 241 241 239 228 285 308 316 336
99 163 146 168 142 143 133 131 182 194 204 129 129 132 186 134 186 147 140 186 245 143 128 159 229 166 183 166 163 186 158 163 196 198 240 56 235 255 236 325 276 296 313 321 345
343 29 100 119 154 153 150 195 207 195 154 136 76 138 189 212 135 136 194 197 196 184 163 163 241 62 166 145 144 208 213 167 105 34 64 216 284 291 263 224 53 2 359 351 275
40 213 55 102 151 152 171 201 204 179 127 153 154 168 171 179 146 186 168 190 206 180 218 199 121 345 151 109 25 160 156 81 1 137 246 265 274 227 153 198 121 21 14 355 15
2 74 28 74 104 159 196 202 186 196 156 170 163 156 174 173 165 190 201 240 190 180 150 146 116 307 115 211 163 137 182 136 133 165 183 230 248 208 211 155 145 133 83 59 41
36 126 345 249 90 148 161 164 158 174 129 150 95 99 158 162 160 193 204 216 172 145 186 186 134 161 199 278 297 310 200 160 159 227 248 164 257 7 183 155 142 138 75 60 55
80 60 357 79 131 172 168 148 189 164 166 161 166 116 88 162 163 164 165 314 162 154 168 162 198 66 344 350 3 216 192 152 110 89 205 146 253 360 125 166 201 156 349 356 358
94 135 11 125 160 138 153 164 165 226 130 188 157 114 109 181 7 167 138 93 128 92 53 121 129 198 216 211 145 195 200 192 168 169 218 234 214 211 217 209 223 250 250 308 81
30 176 353 170 191 161 172 173 156 176 154 208 6 173 164 184 144 165 177 139 126 127 69 121 194 181 167 140 99 143 166 191 201 221 194 251 234 192 202 203 208 225 167 131 109
131 137 11 27 178 136 177 191 184 144 177 163 189 207 209 158 173 161 139 165 162 152 138 128 228 193 240 206 188 278 244 207 244 240 243 255 253 174 207 136 170 205 171 161 139
151 26 91 320 186 182 196 171 190 163 172 151 174 116 217 210 125 106 98 138 151 149 155 155 150 147 226 168 161 239 226 227 223 214 224 232 248 168 176 196 206 194 164 155 137